• Join FlightAware (Why Join?)
  • Login
  • US Flag 
10:23AM EDT


 

Airport Tracker/Info


-or-


 

Live Flight TrackerFlight Track Log ✈ N225SB ✈ 03-Mar-2014 ✈ MMCB / CVJ - KFTY

Flight Track Log - Related Links

Times and Time Zones

All times are in EST time to prevent confusion due to time zone crossing. See the N225SB flight status page for this flight to view local times or setup timezone preferences in your user account.

Time Position Orientation Groundspeed Altitude Reporting Facility
EST Latitude Longitude Course Direction KTS MPH feet Rate Location/Type
01:38PM 25.7683 -95.3669 45° Northeast 514 592 39,000  Level Houston Center
01:39PM 25.8811 -95.2447 44° Northeast 516 594 39,000  Level Houston Center
01:40PM 25.9819 -95.1319 45° Northeast 514 592 39,000  Level Houston Center
01:41PM 26.0833 -95.0186 45° Northeast 514 592 39,000  Level Houston Center
01:42PM 26.2056 -94.8847 44° Northeast 514 592 39,000  Level Houston Center
01:43PM 26.3058 -94.7714 45° Northeast 514 592 39,000  Level Houston Center
01:44PM 26.6557 -94.3617 45° Northeast  Level FlightAware Approximate
01:44PM 26.4083 -94.6558 45° Northeast 516 594 39,000  Level Houston Center
01:45PM 26.5208 -94.5294 45° Northeast 517 595 39,000  Level Houston Center
01:47PM 26.6225 -94.4153 45° Northeast 518 596 39,000  Level Houston Center
01:48PM 26.7228 -94.3017 45° Northeast 518 596 39,000  Level Houston Center
01:49PM 26.8242 -94.1875 45° Northeast 518 596 39,000  Level Houston Center
01:50PM 26.9261 -94.0722 45° Northeast 518 596 39,000  Level Houston Center
01:51PM 27.0467 -93.9333 46° Northeast 518 596 39,000  Level Houston Center
01:52PM 27.1481 -93.8183 45° Northeast 518 596 39,000  Level Houston Center
01:53PM 27.2494 -93.7028 45° Northeast 518 596 39,000  Level Houston Center
01:54PM 27.3508 -93.5861 46° Northeast 519 597 39,000  Level Houston Center
01:55PM 27.4528 -93.4689 46° Northeast 520 598 39,000  Level Houston Center
01:56PM 27.5544 -93.3514 46° Northeast 522 601 39,000  Level Houston Center
01:57PM 27.6667 -93.2217 46° Northeast 524 603 39,000  Level Houston Center
01:58PM 27.7675 -93.1039 46° Northeast 524 603 39,000  Level Houston Center
01:59PM 27.8886 -92.9636 46° Northeast 523 602 39,000  Level Houston Center
02:00PM 27.9900 -92.8431 46° Northeast 524 603 39,000  Level Houston Center
02:01PM 28.0914 -92.7258 46° Northeast 524 603 39,000  Level Houston Center
02:02PM 28.1917 -92.6064 46° Northeast 524 603 39,000  Level Houston Center
02:03PM 28.2928 -92.4869 46° Northeast 527 606 39,000  Level Houston Center
02:04PM 28.4150 -92.3439 46° Northeast 526 605 39,000  Level Houston Center
02:05PM 28.4958 -92.2467 47° Northeast 527 606 39,000  Level Houston Center
02:06PM 28.6169 -92.1025 46° Northeast 527 606 39,000  Level Houston Center
02:07PM 28.7264 -91.9722 46° Northeast 527 606 39,000  Level Houston Center
02:08PM 28.8164 -91.8639 47° Northeast 520 598 39,000  Level Houston Center
02:09PM 28.9342 -91.7228 46° Northeast 521 600 39,000  Level Houston Center
02:10PM 29.0344 -91.6014 47° Northeast 523 602 39,000  Level Houston Center
02:11PM 29.1347 -91.4797 47° Northeast 523 602 39,000  Level Houston Center
02:12PM 29.2350 -91.3581 47° Northeast 524 603 39,000  Level Houston Center
02:13PM 29.3347 -91.2353 47° Northeast 524 603 39,000  Level Houston Center
02:14PM 29.4556 -91.0886 47° Northeast 524 603 39,000  Level Houston Center
02:16PM 29.5533 -90.9667 47° Northeast 524 603 39,000  Level Houston Center
02:17PM 29.6533 -90.8453 47° Northeast 524 603 39,000  Level Houston Center
02:18PM 29.7431 -90.7092 53° Northeast 526 605 39,000  Level Houston Center
02:19PM 29.8289 -90.5764 53° Northeast 526 605 39,000  Level Houston Center
02:20PM 29.9153 -90.4411 54° Northeast 526 605 39,000  Level Houston Center
02:21PM 30.0192 -90.2786 54° Northeast 526 605 39,000  Level Houston Center
02:22PM 30.1086 -90.1397 53° Northeast 526 605 39,000  Level Houston Center
02:23PM 30.1922 -90.0069 54° Northeast 524 603 39,000  Level Houston Center
02:24PM 30.2728 -89.8767 54° Northeast 524 603 39,000  Level Houston Center
02:25PM 30.3669 -89.7281 54° Northeast 528 608 39,000  Level Houston Center
02:26PM 30.4622 -89.5789 53° Northeast 529 609 39,000  Level Houston Center
02:27PM 30.5481 -89.4408 54° Northeast 529 609 39,000  Level Houston Center
02:28PM 30.6350 -89.3017 54° Northeast 530 610 39,000  Level Houston Center
02:29PM 30.7367 -89.1336 55° Northeast 532 612 39,000  Level Houston Center
02:30PM 30.8244 -88.9947 54° Northeast 532 612 39,000  Level Houston Center
02:31PM 30.9031 -88.8653 55° Northeast 532 612 39,000  Level Houston Center
02:32PM 30.9883 -88.7253 55° Northeast 532 612 39,000  Level Houston Center
02:33PM 31.0814 -88.5761 54° Northeast 532 612 39,000  Level Houston Center
02:34PM 31.1667 -88.4353 55° Northeast 531 611 39,000  Level Houston Center
02:35PM 31.2669 -88.2703 55° Northeast 531 611 39,000  Level Houston Center
02:36PM 31.3597 -88.1150 55° Northeast 531 611 39,000  Level Houston Center
02:37PM 31.4372 -87.9867 55° Northeast 531 611 39,000  Level Houston Center
02:38PM 31.5308 -87.8564 50° Northeast 529 609 39,000  Level Houston Center
02:39PM 31.6408 -87.7519 39° Northeast 513 590 39,000 -480 Level Houston Center
02:40PM 31.7328 -87.6769 35° Northeast 504 580 38,200 -1,560 Descending Atlanta Center
02:41PM 31.8442 -87.5739 38° Northeast 504 580 36,400 -1,800 Descending Atlanta Center
02:42PM 31.9397 -87.4431 49° Northeast 509 586 34,600 -1,800 Descending Atlanta Center
02:43PM 32.0106 -87.2914 61° Northeast 523 602 32,900 -1,800 Descending Atlanta Center
02:44PM 32.0917 -87.1450 57° Northeast 523 602 31,100 -1,860 Descending Atlanta Center
02:45PM 32.1786 -87.0031 54° Northeast 523 602 29,200 -1,860 Descending Atlanta Center
02:46PM 32.2631 -86.8658 54° Northeast 523 602 27,400 -1,860 Descending Atlanta Center
02:47PM 32.3456 -86.7261 55° Northeast 523 602 25,500 -1,740 Descending Atlanta Center
02:48PM 32.4428 -86.5789 52° Northeast 523 602 24,000 -780 Descending Atlanta Center
02:49PM 32.5142 -86.4453 58° Northeast 518 596 24,000  Level Atlanta Center
02:50PM 32.6003 -86.3047 54° Northeast 525 604 24,000  Level Atlanta Center
02:51PM 32.6844 -86.1589 56° Northeast 532 612 24,000 -780 Level Atlanta Center
02:52PM 32.7681 -86.0150 55° Northeast 532 612 22,500 -1,800 Descending Atlanta Center
02:53PM 32.8583 -85.8614 55° Northeast 526 605 20,500 -1,800 Descending Atlanta Center
02:54PM 32.9372 -85.7269 55° Northeast 514 592 18,900 -1,800 Descending Atlanta Center
02:55PM 33.0100 -85.5994 56° Northeast 486 559 17,000 -1,920 Descending Atlanta Center
02:57PM 33.1483 -85.3761 53° Northeast 412 474 13,200 -1,560 Descending Atlanta Center
02:59PM 33.2714 -85.1594 56° Northeast 390 449 10,900 -780 Descending Atlanta Center
03:00PM 33.3511 -85.1231 21° North 310 357 10,900 -300 Level Atlanta Center
03:01PM 33.4286 -85.0992 14° North 291 335 10,300 -960 Descending Atlanta Center
03:02PM 33.5042 -85.0528 27° Northeast 291 335 9,000 -1,740 Descending Atlanta Center
03:04PM 33.6167 -84.9167 45° Northeast 312 359 5,300 -1,860 Descending Atlanta TRACON
03:05PM 33.6667 -84.8500 48° Northeast 263 303 3,800 -1,200 Descending Atlanta TRACON
03:06PM 33.7167 -84.8000 40° Northeast 218 251 2,900 -420 Descending Atlanta TRACON
03:07PM 33.7500 -84.7333 59° Northeast 209 241 3,000  Climbing Atlanta TRACON
03:08PM 33.7500 -84.6833 90° East 189 217 2,900 -360 Descending Atlanta TRACON
03:09PM 33.7667 -84.6333 68° East 208 239 2,400 -660 Descending Atlanta TRACON
03:10PM 33.7667 -84.5667 90° East 168 193 1,600 -480 Descending Atlanta TRACON
03:11PM 33.8000 -84.5167 51° Northeast 166 191 1,500  Descending Atlanta TRACON
03:12PM 33.8000 -84.4833 90° East 185 213 1,600 60 Climbing Atlanta TRACON
03:14PM 33.7667 -84.5167 90° East  Level FlightAware Approximate
03:21PM 33.7791 -84.5214 90° East  Level Estimated